星链-30244 (STARLINK-30244 )

导读

STARLINK-30244是美国SpaceX公司星链星座中的一颗低轨通信卫星,于2023年8月11日发射升空。作为星链全球宽带互联网星座的组成部分,它采用平板设计,搭载Ku/Ka波段通信载荷与氪工质霍尔推进器,具备自主避撞能力,运行于近地轨道,旨在为全球提供高速低时延卫星宽带服务,服役寿命约5-7年,退役后将主动离轨坠入大气层销毁。

基本信息
目录编号:
57614
目录名称:
STARLINK-30244
国际标识:
2023-119N
轨道中心:
EARTH
卫星名称:
星链-30244
卫星全名:
星链-30244 (STARLINK-30244 )
卫星状态:
在轨 (已飞行1042 天)
发射日期:
2023-08-11 UTC
国别 :
美国 (US)
星等 :
--
轨道信息
数据来源 国际轨道数据 AOE轨道数据
星历时间 2026-06-18T13:26:14+0800
7小时前
查看轨道信息
2026-06-17T06:00:00+0800
1天前
查看轨道信息
半长轴 6861.198km 6861.225km
偏心率 0.0002029 0.0002812
轨道倾角 43.005° 43.008°
近地点辐角 275.385° 266.227°
升交点赤经 233.671° 241.072°
平近点角 84.677° 81.899°
近地点 481.668km 481.158km
远地点 484.454km 485.018km
周期 94.267分钟 94.268分钟
每日圈数 15.275762 15.275673
详细信息
固有亮度:
5
最大亮度:
0.3
卫星平台:
Starlink v2.0 mini
覆盖范围:
全球
运营商:
太空探索技术公司
运营商所在国:
美国
制造商(研发单位):
太空探索技术公司
制造商所在国:
美国
使用方式:
暂无
卫星简介
星链(Starlink)计划是由太空探索技术公司(SpaceX)提出的一个巨型低轨卫星互联网星座项目,计划在2019年至2024年间在太空搭建由约1.2万颗卫星组成的“星链”网络,其中1584颗将部署在地球上空550千米处的近地轨道,并从2020年开始工作。该卫星仍在工作。
2D轨道图
3D轨道图
轨道高度分析图
轨道倾角分析图
轨道综合分析图
查看轨道综合分析图